User: anonymous   Login
Location: Broad Creek
(39.7000°N, 76.2570°W)
Time: 12:26:18
(UTC-05:00)
Language:

ATLAS 5 CENTAUR R/B - Orbit

View from above orbital plane
View from above orbital plane
View from above satellite
View from above satellite

Ground track
Ground track

The orbit data is extracted from the following two-line orbital elements,

1 31702U 07027B   17021.75506364 0.00000400  00000-0  13964-3 0    09
2 31702  63.3692 289.4884 0254315   2.3433 357.6566 14.18543072    05
Epoch (UTC): 21 January 2017 18:07:17
Eccentricity: 0.0254315
inclination: 63.3692°
perigee height: 647 km
apogee height: 1013 km
right ascension of ascending node: 289.4884°
argument of perigee: 2.3433°
revolutions per day: 14.18543072
mean anomaly at epoch: 357.6566°
orbit number at epoch: 0

The dashed part of the orbit path shows where the satellite is in the earth's shadow,  

DLR